Regional Weather Roundup
Issued by NWS San Angelo, TX

Home | Current Version | Previous Version | Text Only | Print | Product List | Glossary On
Versions: 1 2 3 4 5 6 7 8 9 10 11 12 13 14 15 16 17 18 19 20 21 22 23 24 25 26 27 28 29 30 31 32 33 34 35 36 37 38 39 40 41 42 43 44 45 46 47 48 49 50
000
ASUS44 KSJT 231210
RWRSJT
WEST CENTRAL TEXAS REGIONAL WEATHER ROUNDUP
NATIONAL WEATHER SERVICE SAN ANGELO TX
700 AM CDT WED JUL 23 2014

NOTE: "FAIR" INDICATES FEW OR NO CLOUDS BELOW 12,000 FEET WITH NO
SIGNIFICANT WEATHER AND/OR OBSTRUCTIONS TO VISIBILITY.

TXZ049-054-064>066-071>073-076>078-098-099-113-114-127-128-139-140-
154-155-168>170-231300
...LOCATIONS ACROSS WEST CENTRAL TEXAS...

CITY           SKY/WX    TMP DP  RH WIND       PRES   REMARKS
SAN ANGELO     CLEAR     69  63  81 CALM      30.14R
ABILENE        CLEAR     74  68  81 SE5       30.15R
DYESS AFB      CLEAR     73  67  80 E2        30.14R
JUNCTION       CLEAR     68  64  87 CALM      30.13R
SWEETWATER     PTCLDY    74  65  71 S3        30.20R
BROWNWOOD      CLEAR     72  68  88 CALM      30.13R FOG
COLEMAN        SUNNY     72  67  85 CALM      30.14R
SONORA         CLEAR     68  61  77 CALM      30.19R
OZONA          FAIR      68  59  73 CALM      30.19R
BRADY          CLEAR     73  66  78 CALM      30.13S
$$

TEXAS PANHANDLE/OKLAHOMA PANHANDLE

CITY           SKY/WX    TMP DP  RH WIND       PRES   REMARKS
AMARILLO       CLEAR     68  64  87 S5        30.27R
BORGER         CLEAR     70  64  81 SW3       30.24R
CANADIAN       CLEAR     68  65  91 CALM      30.20R
DALHART        CLEAR     67  62  84 SW3       30.30R
DUMAS          SUNNY     66  60  82 CALM      30.27S
GUYMON         NOT AVBL
HEREFORD       SUNNY     66  65  95 CALM      30.29R
PAMPA          SUNNY     66  62  85 S7        30.25S
PERRYTON       CLEAR     68  63  84 SW6       30.22S
$$

SOUTHERN PANHANDLE/SOUTH PLAINS/ROLLING PLAINS

CITY           SKY/WX    TMP DP  RH WIND       PRES   REMARKS
LUBBOCK        PTCLDY    70  62  76 CALM      30.23S
SNYDER         PTCLDY    73  62  68 N5        30.18S
CHILDRESS      CLEAR     73  68  84 CALM      30.17R
SEMINOLE       MOSUNNY   71  60  68 NE3       30.24S
$$

PERMIAN BASIN

CITY           SKY/WX    TMP DP  RH WIND       PRES   REMARKS
MIDLAND        PTCLDY    74  63  68 CALM      30.19R
ODESSA         PTCLDY    75  62  64 E7        30.20R
WINK           PTCLDY    77  62  59 E7        30.16R
$$

FAR WEST/SOUTHWEST MOUNTAINS/TRANS PECOS

CITY           SKY/WX    TMP DP  RH WIND       PRES   REMARKS
ALPINE         MOSUNNY   65  60  82 W3        30.32S
DRYDEN           N/A     79  62  56 N8        30.12R
EL PASO        PTCLDY    71  66  84 NE7       30.20R
FORT STOCKTON  PTCLDY    73  60  63 S7        30.18R
GUADALUPE PASS PTCLDY    71  56  58 NE12        N/A
MARFA          PTCLDY    61  57  88 N7        30.31S
PECOS          MOSUNNY   72  58  61 NE5       30.15S
$$

DALLAS/FORT WORTH METROPLEX

CITY           SKY/WX    TMP DP  RH WIND       PRES   REMARKS
DFW AIRPORT    PTCLDY    77  69  76 CALM      30.09R
FTW MEACHAM    CLEAR     77  70  79 CALM      30.09S HAZE
DAL-EXECUTIVE  CLEAR     74  69  85 CALM      30.09S HAZE
GRAND PRAIRIE  NOT AVBL
ADDISON        PTCLDY    77  68  73 S3        30.09S
MESQUITE       SUNNY     70  70 100 CALM      30.10R FOG
LANCASTER      SUNNY     67  65  91 CALM      30.10S FOG
$$

NORTH CENTRAL TEXAS

CITY           SKY/WX    TMP DP  RH WIND       PRES   REMARKS
SHRMAN/DENISON SUNNY     73  69  85 CALM      30.11S
GAINESVILLE    CLEAR     72  70  95 CALM      30.13R FOG
BRIDGEPORT     SUNNY     70  70 100 CALM      30.13R FOG
DENTON         CLEAR     72  71  97 CALM      30.09S FOG
WAXAHACHIE     SUNNY     69  67  94 CALM      30.11S FOG
GRANBURY       SUNNY     74  70  88 CALM      30.11S FOG
$$

WESTERN NORTH TEXAS

CITY           SKY/WX    TMP DP  RH WIND       PRES   REMARKS
WICHITA FALLS  PTCLDY    74  70  87 CALM      30.11S FOG
VERNON         SUNNY     74  69  86 CALM      30.14R
BRECKENRIDGE   SUNNY     75  69  79 E5        30.12R HAZE
COMANCHE       CLEAR     73  72  95 CALM      30.14R FOG
$$

CENTRAL AND SOUTH CENTRAL TEXAS

CITY           SKY/WX    TMP DP  RH WIND       PRES   REMARKS
AUSTIN/BERGSTM MOCLDY    74  72  93 CALM      30.06R
WACO           CLEAR     73  71  93 N3        30.08S FOG
HILLSBORO      SUNNY     72  69  88 CALM      30.10S FOG
TEMPLE         PTCLDY    75  70  83 CALM      30.08S
KILLEEN-GRAY   MOCLDY    79  73  83 N3        30.09R FOG
FORT HOOD      MOCLDY    79  74  84 CALM      30.09R
GEORGETOWN     CLEAR     73  72  94 N6        30.09R
LAGO VISTA     FAIR      75  70  85 CALM      30.10S
SAN MARCOS     CLEAR     73  66  78 NW5       30.08S
NEW BRAUNFELS  CLEAR     72  71  97 CALM      30.06R
RANDOLPH AFB   CLEAR     77  74  90 S3        30.08R
SAN ANTONIO    PTCLDY    78  74  87 E3        30.08R
STINSON        PTCLDY    76  74  93 SE3       30.05R
PLEASANTON     NOT AVBL
LA GRANGE      CLEAR     76  74  96 CALM      30.04R
GIDDINGS       SUNNY     75  73  92 CALM      30.10R
$$

EAST TEXAS

CITY           SKY/WX    TMP DP  RH WIND       PRES   REMARKS
PARIS          CLEAR     72  64  78 CALM      30.10R
CLARKSVILLE    SUNNY     71  70  98 CALM      30.09R
TYLER          CLEAR     72  68  87 CALM      30.09S
LONGVIEW       CLEAR     69  67  93 NW5       30.08S
PALESTINE      NOT AVBL
NACOGDOCHES    CLEAR     68  66  94 CALM      30.08S
$$

TEXAS HILL COUNTRY AND EDWARDS PLATEAU

CITY           SKY/WX    TMP DP  RH WIND       PRES   REMARKS
LLANO          SUNNY     73  70  88 CALM      30.13R
HORSESHOE BAY  FAIR      73  68  86 CALM      30.09S
KERRVILLE      CLEAR     69  64  85 CALM      30.13R
FREDERICKSBRG  CLEAR     68  64  87 CALM      30.13R
ROCKSPRINGS    SUNNY     72  64  78 CALM      30.17R
HONDO          CLEAR     72  70  93 NE5       30.09S
UVALDE         SUNNY     75  73  93 NE5       30.08S
DEL RIO        CLEAR     78  70  76 E8        30.06R
$$

SOUTHEAST TEXAS

CITY           SKY/WX    TMP DP  RH WIND       PRES   REMARKS
COLLEGE STN    CLEAR     77  74  90 NE5       30.06R FOG
CALDWELL       MOSUNNY   75  75 100 CALM      30.09R FOG
CROCKETT       SUNNY     73  73 100 CALM      30.10S FOG
BRENHAM        CLEAR     75  73  95 CALM      30.06R FOG
HUNTSVILLE     CLEAR     73  71  93 CALM      30.07R FOG
CONROE         MOCLDY    73  73 100 CALM      30.07R FOG
HOUSTON BUSH   MOCLDY    79  76  90 NW3       30.05R
HOUSTON HOBBY  PTCLDY    80  75  84 NW5       30.03S
PERLAND        PTCLDY    78  74  87 NW5       30.05R
WHARTON        CLOUDY    75  74  97 CALM      30.05R FOG
$$

THE UPPER TEXAS COAST

CITY           SKY/WX    TMP DP  RH WIND       PRES   REMARKS
ORANGE         SUNNY    N/A N/A N/A CALM      30.06R HAZE
PORT ARTHUR    CLEAR     75  72  90 N7        30.03S
GALVESTON      MOCLDY    82  78  88 NW8       30.03S
ANGLETON       CLOUDY    76  75  97 N3        30.04R
BAY CITY       SUNNY     78  78 100 CALM      30.03S FOG
$$

TEXAS COASTAL BEND, RIO GRANDE PLAINS DEEP SOUTH TEXAS

CITY           SKY/WX    TMP DP  RH WIND       PRES   REMARKS
VICTORIA       FOG       76  75  97 N3        30.05R VSB 1/4
BEEVILLE       FOG       77  77 100 CALM      30.04R VSB 1/4
ROCKPORT       CLEAR     80  77  90 S3        30.03R
PORT ARANSAS   PTSUNNY   80  77  91 S6        30.03R
PORT LAVACA    NOT AVBL
CORPUS CHRISTI PTCLDY    76  74  93 SE3       30.03R FOG
KINGSVILLE NAS FOG       76  76 100 CALM      30.02S VSB 1/2
COTULLA        CLEAR     77  74  90 SE5       30.04R FOG
LAREDO         CLEAR     81  75  81 E7        30.05R
BROWNSVILLE    CLEAR     77  76  96 CALM      30.01S
PORT ISABEL    CLEAR     79  75  87 S5        30.01R FOG
HEBBRONVILLE   CLOUDY    77  75  93 SE6       30.04S FOG
MCALLEN        CLEAR     79  77  94 S8        30.01R
WESLACO        NOT AVBL
FALFURRIAS     CLOUDY    60  60 100 CALM      30.02R
EDINBURG       SUNNY     78  75  90 S3        30.01S FOG
$$


USA.gov is the U.S. government's official web portal to all federal, state and local government web resources and services.